Regional Weather Roundup
Issued by NWS State College, PA

Home | Current Version | Previous Version | Text Only | Print | Product List | Glossary On
Versions: 1 2 3 4 5 6 7 8 9 10 11 12 13 14 15 16 17 18 19 20 21 22 23 24 25 26 27 28 29 30 31 32 33 34 35 36 37 38 39 40 41 42 43 44 45 46 47 48 49 50
000
ASUS41 KCTP 270203
RWRCTP

REGIONAL WEATHER ROUNDUP
NATIONAL WEATHER SERVICE STATE COLLEGE PA
900 PM EST FRI DEC 26 2014

Note: "fair" indicates few or no clouds below 12,000 feet with no
significant weather and/or obstructions to visibility.

* = STATION THAT DOES NOT REPORT PRECIPITATION /E.G. RAIN...SNOW...ETC/
    THUNDER OR FOG.

PAZ002>004-007>009-013>016-020>023-029>032-270300-
WESTERN PENNSYLVANIA

CITY           SKY/WX    TMP DP  RH WIND       PRES   REMARKS
ERIE           PTCLDY    44  32  62 S15       30.16S
MEADVILLE      CLOUDY    41  31  67 S8        30.17S
FRANKLIN*      CLOUDY    41  28  60 SW10G16   30.20S
NEW CASTLE       N/A     42  32  68 CALM      30.21F
BEAVER COUNTY  CLEAR     39  32  75 S3        30.20S
BUTLER*        MOCLDY    39  30  70 S5        30.22S
PITTSBURGH INT MOCLDY    40  31  70 CALM      30.21S
PITTSBURGH     CLOUDY    43  27  53 S9        30.21S
INDIANA*       CLEAR     34  30  86 CALM      30.25F
LATROBE        CLOUDY    41  32  70 SW6       30.24F
WASHINGTON CO* NOT AVBL
$$

PAZ004>006-010>012-017>019-024>028-033>037-041-042-045-046-049>053-270300-
CENTRAL PENNSYLVANIA

CITY           SKY/WX    TMP DP  RH WIND       PRES   REMARKS
BRADFORD       PTCLDY    37  28  70 SW6       30.15F
DUBOIS         PTCLDY    39  30  70 SW9       30.18S
CLEARFIELD     PTCLDY    35  29  78 SW7       30.20S
JOHNSTOWN      PTCLDY    39  25  57 SW8       30.18F
ALTOONA        CLEAR     37  28  70 CALM      30.22S
STATE COLLEGE  CLEAR     36  28  75 SW5       30.20F
WILLIAMSPORT   PTCLDY    32  27  81 CALM      30.22S
SELINSGROVE    PTCLDY    30  27  88 CALM      30.24S
FT INDIANTOWN  CLEAR     32  30  92 CALM      30.25S
CAPITAL CITY   CLEAR     33  28  81 CALM      30.25S
HARRISBURG     PTCLDY    33  29  85 SE3       30.24F
YORK           PTCLDY    30  27  88 CALM      30.24F
$$

PAZ038>040-043-044-047-048-054-055-060>062-067>071-270300-
EASTERN PENNSYLVANIA

CITY           SKY/WX    TMP DP  RH WIND       PRES   REMARKS
SCRANTON       CLEAR     33  27  78 S9        30.19F
MOUNT POCONO   CLEAR     33  26  75 W3        30.17F
ALLENTOWN      CLEAR     34  27  75 CALM      30.24S
QUAKERTOWN*    NOT AVBL
READING        CLEAR     35  29  78 CALM      30.24S
LANCASTER      CLEAR     36  29  75 CALM      30.25F
COATESVILLE    CLEAR     41  34  75 SW3       30.26S
POTTSTOWN      CLEAR     32  28  85 CALM      30.26S
BLUE BELL      CLEAR     34  32  93 CALM      30.25S
DOYLESTOWN     CLEAR     37  31  78 SW3       30.24S
WILLOW GROVE   NOT AVBL
NORTH PHILA    CLEAR     41  29  62 W5        30.28S
PHILADELPHIA   PTCLDY    40  31  70 SW3       30.28S
$$


USA.gov is the U.S. government's official web portal to all federal, state and local government web resources and services.